Weather History for Chatham, MA

Change the Weather History Date:

Thursday, March 13, 2014

  Actual Average Record
Temperature  
Mean Temperature 34 °F -  
Max Temperature 46 °F 40 °F 60 °F (1990)
Min Temperature 19 °F 28 °F 15 °F (1984)
Degree Days  
Heating Degree Days 32    
Moisture  
Dew Point 24 °F    
Average Humidity 83    
Maximum Humidity 100    
Minimum Humidity 50    
Precipitation  
Precipitation 0.17 in - - ()
Sea Level Pressure  
Sea Level Pressure 29.26 in    
Wind  
Wind Speed 11 mph (NW)    
Max Wind Speed 17 mph    
Max Gust Speed 30 mph    
Visibility 4 miles    
Events Fog , Rain , Snow    
Averages and records for this station are not official NWS values.
T = Trace of Precipitation, MM = Missing Value Source: NWS Daily Summary

Daily Weather History Graph

Daily Weather History Graph

Search for Another Location

Airport:

Trip Planner

Search our weather history database for the weather conditions in past years. The results will help you decide how hot, cold, wet, or windy it might be!

Date:

Astronomy

Mar. 13, 2014 Rise Set
Actual Time 6:55 AM EDT 6:44 PM EDT
Civil Twilight 6:27 AM EDT 7:11 PM EDT
Nautical Twilight 5:55 AM EDT 7:44 PM EDT
Astronomical Twilight 5:22 AM EDT 8:16 PM EDT
Moon 4:05 PM EDT (3/13) 5:02 AM EDT (3/13)
Length of Visible Light 12h 44m
Length of Day
11h 49m
Waxing Gibbous, 91% of the Moon is Illuminated
Mar 13
Waxing Gibbous
Mar 16
Full
Mar 23
Last Quarter
Mar 30
New
Apr 7
First Quarter

Hourly Weather History & Observations

Time (EDT) Temp. Windchill Dew Point Humidity Pressure Visibility Wind Dir Wind Speed Gust Speed Precip Events Conditions
12:03 AM 48.0 °F - 48.0 °F 100% 28.96 in 0.8 mi SW 10.4 mph 19.6 mph 0.02 in Rain Rain
12:19 AM 48.0 °F - 48.0 °F 100% 28.96 in 1.0 mi SSW 11.5 mph - 0.06 in Rain Rain
12:31 AM 46.9 °F - 46.9 °F 100% 28.95 in 0.8 mi SW 10.4 mph 18.4 mph 0.07 in Rain Light Rain
12:45 AM 46.9 °F - 46.0 °F 97% 28.95 in 1.5 mi WSW 11.5 mph 23.0 mph 0.07 in   Overcast
12:52 AM 46.0 °F 41.4 °F 45.0 °F 96% 28.95 in 1.5 mi SW 9.2 mph 21.9 mph 0.07 in   Overcast
1:16 AM 45.0 °F 39.3 °F 44.1 °F 97% 28.95 in 0.8 mi WSW 11.5 mph 21.9 mph N/A   Mist
1:27 AM 43.0 °F 36.4 °F 42.1 °F 97% 28.97 in 2.0 mi WNW 12.7 mph 20.7 mph 0.00 in Rain Light Rain
1:35 AM 39.9 °F 32.9 °F 39.0 °F 97% 28.97 in 5.0 mi WNW 11.5 mph 21.9 mph 0.01 in Rain Light Rain
1:52 AM 39.0 °F 32.3 °F 37.9 °F 96% 29.00 in 9.0 mi WNW 10.4 mph 19.6 mph 0.02 in   Overcast
2:52 AM 36.0 °F 28.0 °F 35.1 °F 97% 28.98 in 8.0 mi North 11.5 mph 27.6 mph N/A   Overcast
3:18 AM 36.0 °F 29.6 °F 35.1 °F 97% 28.97 in 9.0 mi North 8.1 mph - N/A   Overcast
3:52 AM 34.0 °F 25.0 °F 33.1 °F 96% 28.99 in 9.0 mi North 12.7 mph 20.7 mph N/A   Overcast
4:15 AM 33.1 °F 23.9 °F 32.0 °F 96% 28.99 in 9.0 mi North 12.7 mph 18.4 mph N/A   Overcast
4:52 AM 32.0 °F 22.5 °F 30.0 °F 92% 29.08 in 9.0 mi NNW 12.7 mph 26.5 mph 0.00 in   Overcast
5:35 AM 30.9 °F 22.2 °F 28.9 °F 92% 29.09 in 5.0 mi NNW 10.4 mph 26.5 mph 0.01 in Rain Light Freezing Rain
5:41 AM 30.9 °F 21.7 °F 28.9 °F 92% 29.09 in 4.0 mi North 11.5 mph 26.5 mph 0.01 in Snow Light Snow
5:52 AM 30.0 °F 19.5 °F 28.0 °F 92% 29.08 in 2.0 mi North 13.8 mph 27.6 mph 0.02 in Snow Light Snow
6:05 AM 30.0 °F 21.1 °F 28.0 °F 92% 29.08 in 3.0 mi NNW 10.4 mph 24.2 mph 0.00 in Snow Light Snow
6:20 AM 30.0 °F 20.0 °F 27.0 °F 88% 29.06 in 2.0 mi North 12.7 mph 24.2 mph 0.00 in Snow Light Snow
6:24 AM 28.9 °F 18.6 °F 27.0 °F 92% 29.06 in 1.8 mi NNW 12.7 mph 24.2 mph 0.00 in Snow Light Snow
6:45 AM 28.0 °F 16.5 °F 26.1 °F 92% 29.09 in 1.2 mi NNW 15.0 mph 29.9 mph 0.00 in Snow Light Snow
6:52 AM 28.0 °F 19.3 °F 26.1 °F 92% 29.10 in 3.0 mi NNW 9.2 mph 26.5 mph 0.00 in Snow Light Snow
7:03 AM 28.0 °F 18.1 °F 26.1 °F 92% 29.13 in 2.5 mi NNW 11.5 mph 27.6 mph 0.00 in Snow Light Snow
7:09 AM 28.0 °F 16.5 °F 25.0 °F 88% 29.13 in 3.0 mi NNW 15.0 mph 23.0 mph 0.00 in Snow Light Snow
7:44 AM 27.0 °F 17.3 °F 23.0 °F 85% 29.17 in 2.0 mi NNW 10.4 mph 21.9 mph 0.00 in Snow Light Snow
7:46 AM 26.6 °F 17.5 °F 23.0 °F 86% 29.17 in 1.2 mi NNW 9.2 mph 21.9 mph 0.00 in Snow Light Snow
7:52 AM 27.0 °F 17.3 °F 24.1 °F 89% 29.18 in 0.5 mi NNW 10.4 mph 21.9 mph 0.00 in Fog , Snow Light Snow
7:59 AM 26.1 °F 16.2 °F 24.1 °F 92% 29.18 in 1.0 mi NW 10.4 mph 23.0 mph 0.01 in Snow Light Snow
8:36 AM 26.1 °F 17.6 °F 21.9 °F 84% 29.21 in 2.5 mi NNW 8.1 mph 23.0 mph 0.01 in Snow Light Snow
8:43 AM 26.1 °F 15.6 °F 21.9 °F 84% 29.21 in 4.0 mi NNW 11.5 mph 18.4 mph 0.01 in Snow Light Snow
8:52 AM 26.1 °F 16.8 °F 21.0 °F 81% 29.23 in 6.0 mi NNW 9.2 mph 20.7 mph 0.01 in   Haze
9:50 AM 26.6 °F 17.5 °F 19.4 °F 74% 29.26 in 8.0 mi NNW 9.2 mph 23.0 mph N/A   Overcast
9:52 AM 26.1 °F 15.6 °F 19.0 °F 75% 29.27 in 7.0 mi NNW 11.5 mph 23.0 mph 0.00 in Snow Light Snow
10:03 AM 26.1 °F 16.2 °F 19.9 °F 78% 29.27 in 8.0 mi NW 10.4 mph 20.7 mph 0.00 in Snow Light Snow
10:16 AM 26.1 °F 16.8 °F 19.9 °F 78% 29.29 in 1.8 mi NW 9.2 mph 20.7 mph 0.00 in Snow Light Snow
10:21 AM 26.1 °F 16.2 °F 21.0 °F 81% 29.29 in 0.5 mi NW 10.4 mph 20.7 mph 0.00 in Snow Snow
10:23 AM 25.0 °F 15.5 °F 21.0 °F 85% 29.29 in 0.2 mi NW 9.2 mph 17.3 mph 0.00 in Fog , Snow Snow
10:27 AM 25.0 °F 14.8 °F 21.9 °F 88% 29.30 in 0.2 mi NW 10.4 mph 21.9 mph 0.01 in Fog , Snow Snow
10:52 AM 24.1 °F 13.7 °F 21.9 °F 91% 29.31 in 0.2 mi NW 10.4 mph 18.4 mph 0.03 in Fog , Snow Heavy Snow
11:26 AM 24.1 °F 13.1 °F 21.0 °F 88% 29.33 in 0.5 mi NW 11.5 mph 23.0 mph 0.02 in Fog , Snow Snow
11:45 AM 23.0 °F 12.4 °F 19.0 °F 85% 29.34 in 0.8 mi WNW 10.4 mph 25.3 mph 0.02 in Snow Light Snow
11:52 AM 23.0 °F 11.7 °F 19.0 °F 85% 29.35 in 1.0 mi NW 11.5 mph 19.6 mph 0.02 in Snow Light Snow
12:33 PM 21.9 °F 9.2 °F 18.0 °F 85% 29.37 in 0.8 mi WNW 13.8 mph 20.7 mph 0.00 in Snow Light Snow
12:52 PM 23.0 °F 13.1 °F 17.1 °F 78% 29.39 in 2.0 mi NW 9.2 mph 21.9 mph 0.00 in Snow Light Snow
1:37 PM 21.9 °F 11.7 °F 16.0 °F 78% 29.40 in 1.5 mi NW 9.2 mph 23.0 mph 0.00 in Snow Light Snow
1:52 PM 21.9 °F 12.5 °F 17.1 °F 82% 29.42 in 1.0 mi WNW 8.1 mph 23.0 mph 0.00 in Snow Light Snow
2:52 PM 21.9 °F 10.4 °F 15.1 °F 75% 29.45 in 1.2 mi WNW 11.5 mph 21.9 mph 0.00 in Snow Light Snow
3:52 PM 21.0 °F 9.9 °F 14.0 °F 74% 29.50 in 3.0 mi NW 10.4 mph 21.9 mph 0.00 in Snow Light Snow
4:09 PM 21.9 °F 8.7 °F 14.0 °F 72% 29.50 in 2.5 mi NW 15.0 mph 25.3 mph 0.00 in Snow Light Snow
4:20 PM 21.9 °F 11.7 °F 14.0 °F 72% 29.51 in 3.0 mi NW 9.2 mph 19.6 mph 0.00 in Snow Light Snow
4:31 PM 21.9 °F 11.7 °F 12.9 °F 68% 29.52 in 4.0 mi WNW 9.2 mph 23.0 mph 0.00 in Snow Light Snow
4:52 PM 21.9 °F 11.0 °F 10.9 °F 63% 29.54 in 9.0 mi NW 10.4 mph 27.6 mph 0.00 in   Overcast
5:52 PM 21.9 °F 9.2 °F 9.0 °F 58% 29.60 in 10.0 mi NW 13.8 mph 23.0 mph N/A   Overcast
6:52 PM 21.0 °F 9.3 °F 10.9 °F 65% 29.65 in 9.0 mi WNW 11.5 mph 21.9 mph 0.00 in   Overcast
7:52 PM 21.9 °F 9.8 °F 9.0 °F 58% 29.70 in 10.0 mi WNW 12.7 mph 25.3 mph 0.00 in   Overcast
8:52 PM 21.9 °F 7.8 °F 9.0 °F 58% 29.77 in 10.0 mi NW 17.3 mph 25.3 mph N/A   Overcast
9:52 PM 21.0 °F 9.3 °F 6.1 °F 53% 29.83 in 10.0 mi NW 11.5 mph 27.6 mph N/A   Overcast
10:52 PM 19.9 °F 6.7 °F 3.9 °F 50% 29.87 in 10.0 mi NW 13.8 mph 27.6 mph N/A   Mostly Cloudy
11:52 PM 21.0 °F 9.3 °F 5.0 °F 50% 29.90 in 10.0 mi NW 11.5 mph 26.5 mph N/A   Mostly Cloudy